Location: Grand Mazuras
(45.9128°N, 1.7636°E)
Time: 16:47:00
(UTC+00:00)

Terra - Pass Details

Date: 18 April 2021
Orbit: 701 x 703 km, 98.2° (Epoch: 12 May)

Event Time Altitude Azimuth Distance (km) Brightness Sun altitude
Exits shadow 23:07:51 16° 281° (WNW) 1,789 4.1 -32.1°
Drops below altitude 10° 23:10:09 10° 310° (NW) 2,178 4.9 -32.1°
Sets 23:13:13 0° 331° (NNW) 3,102 6.1 -32.2°
